Location: N�rnberg
(49.4489°N, 11.0797°E)
Time: 18:06:42
(UTC+02:00)

ISS - Pass Details

Date: 28 March 2017
Orbit: 401 x 409 km, 51.6° (Epoch: 29 April)

Event Time Altitude Azimuth Distance (km) Brightness Sun altitude
Rises 20:44:53 0° 209° (SSW) 2,308 0.1 -10.9°
Reaches altitude 10° 20:47:16 10° 192° (SSW) 1,455 -1.1 -11.3°
Maximum altitude 20:49:46 21° 141° (SE) 984 -2.4 -11.7°
Enters shadow 20:50:26 19° 124° (SE) 1,025 -2.4 -11.8°
